F3625 Weather Reports


time (UTC)temp
C
wind
direction
speed
KPH
gust
KPH
rain 1hr
cm
rain 24hr
cm
rain mn
cm
humidity
%
barometer
mb
20260506222540 25 198 1.6 9.7 0.00 0.00 0.00 39 1015.3
20260506222043 25 198 1.6 9.7 0.00 0.00 0.00 37 1015.4
20260506221554 25 0 0.0 11.3 0.00 0.00 0.00 39 1015.5
20260506221042 25 0 3.2 12.9 0.00 0.00 0.00 39 1015.6
20260506220539 25 0 1.6 12.9 0.00 0.00 0.00 40 1015.7
20260506220051 25 0 0.0 8.0 0.00 0.00 0.00 39 1015.7
20260506215539 25 213 1.6 9.7 0.00 0.00 0.00 38 1015.8
20260506215040 24 0 0.0 12.9 0.00 0.00 0.00 41 1015.8
20260506214551 23 204 4.8 16.1 0.00 0.00 0.00 42 1015.9
20260506214040 23 203 3.2 16.1 0.00 0.00 0.00 40 1015.9
20260506213539 23 198 4.8 14.5 0.00 0.00 0.00 40 1015.8
20260506213051 23 222 4.8 12.9 0.00 0.00 0.00 39 1015.9
20260506212541 23 198 0.0 12.9 0.00 0.00 0.00 43 1015.9
20260506212040 23 136 3.2 14.5 0.00 0.00 0.00 42 1015.9
20260506211549 23 193 4.8 14.5 0.00 0.00 0.00 41 1015.9
20260506211039 22 219 4.8 14.5 0.00 0.00 0.00 42 1016.0
20260506210540 23 223 4.8 12.9 0.00 0.00 0.00 42 1016.0
20260506210050 23 215 6.4 12.9 0.00 0.00 0.00 41 1016.0
20260506205539 23 207 3.2 12.9 0.00 0.00 0.00 41 1016.1
20260506205039 23 230 3.2 9.7 0.00 0.00 0.00 41 1016.1
20260506204556 23 243 1.6 9.7 0.00 0.00 0.00 41 1016.2
20260506204045 23 234 1.6 6.4 0.00 0.00 0.00 40 1016.2
20260506203540 23 235 1.6 4.8 0.00 0.00 0.00 39 1016.3
20260506203048 23 238 0.0 4.8 0.00 0.00 0.00 41 1016.4
20260506202540 23 238 1.6 6.4 0.00 0.00 0.00 39 1016.4
20260506202043 23 238 1.6 6.4 0.00 0.00 0.00 37 1016.5
20260506201553 23 238 0.0 4.8 0.00 0.00 0.00 39 1016.6
20260506201040 23 0 0.0 4.8 0.00 0.00 0.00 38 1016.6
20260506200543 23 229 0.0 4.8 0.00 0.00 0.00 42 1016.6
20260506200106 22 0 0.0 4.8 0.00 0.00 0.00 44 1016.7
20260506195539 22 0 0.0 4.8 0.00 0.00 0.00 42 1016.7
20260506195042 22 230 1.6 8.0 0.00 0.00 0.00 40 1016.8
20260506194606 22 0 0.0 8.0 0.00 0.00 0.00 44 1016.8
20260506194040 22 222 1.6 8.0 0.00 0.00 0.00 41 1016.9
20260506193543 22 0 1.6 6.4 0.00 0.00 0.00 41 1016.9
20260506193049 22 0 0.0 6.4 0.00 0.00 0.00 42 1017.0
20260506192542 22 232 0.0 4.8 0.00 0.00 0.00 40 1017.1
20260506192046 23 232 0.0 4.8 0.00 0.00 0.00 41 1017.1
20260506191551 22 0 1.6 6.4 0.00 0.00 0.00 40 1017.1
20260506191039 22 0 0.0 6.4 0.00 0.00 0.00 42 1017.1
20260506190538 22 0 1.6 6.4 0.00 0.00 0.00 41 1017.2
20260506190053 22 0 0.0 4.8 0.00 0.00 0.00 45 1017.2
20260506185541 21 233 0.0 9.7 0.00 0.00 0.00 46 1017.2
20260506185045 21 240 0.0 9.7 0.00 0.00 0.00 47 1017.2
20260506184605 21 219 1.6 8.0 0.00 0.00 0.00 45 1017.3
20260506184040 21 161 0.0 3.2 0.00 0.00 0.00 47 1017.4
20260506183543 21 0 0.0 3.2 0.00 0.00 0.00 43 1017.5
20260506183101 21 0 0.0 8.0 0.00 0.00 0.00 44 1017.5
20260506182542 20 0 1.6 8.0 0.00 0.00 0.00 48 1017.5
20260506182039 20 163 0.0 6.4 0.00 0.00 0.00 45 1017.5
20260506181559 20 0 0.0 6.4 0.00 0.00 0.00 45 1017.5
20260506181039 20 164 1.6 4.8 0.00 0.00 0.00 44 1017.5
20260506180545 20 0 0.0 3.2 0.00 0.00 0.00 47 1017.5
20260506180054 19 0 0.0 4.8 0.00 0.00 0.00 47 1017.5
20260506175544 19 0 0.0 4.8 0.00 0.00 0.00 49 1017.4
20260506175041 19 147 1.6 4.8 0.00 0.00 0.00 46 1017.6
20260506174551 18 0 0.0 4.8 0.00 0.00 0.00 49 1017.5
20260506174039 18 0 1.6 4.8 0.00 0.00 0.00 48 1017.6
20260506173545 18 0 0.0 4.8 0.00 0.00 0.00 50 1017.6
20260506173104 18 0 0.0 4.8 0.00 0.00 0.00 50 1017.5
20260506172543 18 0 0.0 3.2 0.00 0.00 0.00 48 1017.6
20260506172043 17 0 0.0 4.8 0.00 0.00 0.00 50 1017.6
20260506171552 17 0 0.0 4.8 0.00 0.00 0.00 53 1017.6
20260506171042 17 151 0.0 4.8 0.00 0.00 0.00 52 1017.7
20260506170540 17 0 0.0 4.8 0.00 0.00 0.00 53 1017.7
20260506170056 16 152 1.6 6.4 0.00 0.00 0.00 52 1017.7
20260506165542 17 0 1.6 6.4 0.00 0.00 0.00 52 1017.7
20260506165042 17 148 0.0 4.8 0.00 0.00 0.00 52 1017.7
20260506164556 17 0 0.0 3.2 0.00 0.00 0.00 51 1017.7
20260506164041 16 148 0.0 1.6 0.00 0.00 0.00 53 1017.7
20260506163538 16 0 0.0 1.6 0.00 0.00 0.00 53 1017.7
20260506163054 16 0 0.0 3.2 0.00 0.00 0.00 53 1017.8
20260506162538 15 148 0.0 3.2 0.00 0.00 0.00 54 1017.9
20260506162040 15 0 0.0 4.8 0.00 0.00 0.00 54 1017.7
20260506161602 15 0 0.0 4.8 0.00 0.00 0.00 56 1017.9
20260506161043 15 149 0.0 3.2 0.00 0.00 0.00 55 1017.7
20260506160541 15 0 0.0 6.4 0.00 0.00 0.00 54 1017.9
20260506160054 15 0 1.6 6.4 0.00 0.00 0.00 54 1017.8
20260506155542 14 154 1.6 4.8 0.00 0.00 0.00 55 1017.9
20260506155044 14 0 0.0 1.6 0.00 0.00 0.00 55 1017.9
20260506154554 14 0 0.0 3.2 0.00 0.00 0.00 55 1017.9
20260506154046 13 0 0.0 3.2 0.00 0.00 0.00 55 1018.0
20260506153543 13 0 0.0 3.2 0.00 0.00 0.00 55 1018.0
20260506153048 13 0 0.0 1.6 0.00 0.00 0.00 55 1018.0
20260506152539 13 0 0.0 3.2 0.00 0.00 0.00 56 1018.0
20260506152047 13 0 0.0 3.2 0.00 0.00 0.00 55 1018.0
20260506151604 13 0 0.0 3.2 0.00 0.00 0.00 56 1018.1
20260506151041 13 0 0.0 3.2 0.00 0.00 0.00 56 1018.0
20260506150538 13 0 0.0 1.6 0.00 0.00 0.00 57 1018.0
20260506150049 12 0 0.0 3.2 0.00 0.00 0.00 57 1017.9
20260506145539 12 0 0.0 3.2 0.00 0.00 0.00 57 1017.9
20260506145039 12 209 0.0 3.2 0.00 0.00 0.00 57 1018.0
20260506144549 12 0 0.0 3.2 0.00 0.00 0.00 57 1017.9
20260506144042 12 0 0.0 0.0 0.00 0.00 0.00 58 1017.9
20260506143540 12 0 0.0 0.0 0.00 0.00 0.00 58 1017.9
20260506143053 12 0 0.0 0.0 0.00 0.00 0.00 59 1017.7
20260506142538 12 0 0.0 0.0 0.00 0.00 0.00 58 1017.8
20260506142041 12 0 0.0 0.0 0.00 0.00 0.00 59 1017.7
20260506141550 12 0 0.0 0.0 0.00 0.00 0.00 59 1017.6
20260506141039 12 0 0.0 0.0 0.00 0.00 0.00 60 1017.6
20260506140542 11 0 0.0 0.0 0.00 0.00 0.00 61 1017.5
20260506135540 11 0 0.0 0.0 0.00 0.00 0.00 63 1017.5
20260506135040 11 0 0.0 0.0 0.00 0.00 0.00 64 1017.4
20260506134553 11 0 0.0 0.0 0.00 0.00 0.00 64 1017.2
20260506134039 11 0 0.0 0.0 0.00 0.00 0.00 64 1017.3
20260506133542 11 0 0.0 0.0 0.00 0.00 0.00 64 1017.3
20260506133049 11 0 0.0 0.0 0.00 0.00 0.00 64 1017.2
20260506132540 11 0 0.0 0.0 0.00 0.00 0.00 64 1017.2
20260506132043 11 0 0.0 0.0 0.00 0.00 0.00 64 1017.2
20260506131552 11 0 0.0 0.0 0.00 0.00 0.00 64 1017.1
20260506131040 11 0 0.0 0.0 0.00 0.00 0.00 64 1017.0
20260506130540 11 0 0.0 0.0 0.00 0.00 0.00 64 1017.0
20260506130118 11 0 0.0 0.0 0.00 0.00 0.00 64 1017.1
20260506125542 11 0 0.0 0.0 0.00 0.00 0.00 64 1017.0
20260506125041 11 0 0.0 0.0 0.00 0.00 0.00 64 1016.9
20260506124550 11 0 0.0 0.0 0.00 0.00 0.00 64 1016.8
20260506124042 11 0 0.0 0.0 0.00 0.00 0.00 64 1016.9
20260506123542 11 0 0.0 0.0 0.00 0.00 0.00 64 1016.8
20260506123049 11 0 0.0 0.0 0.00 0.00 0.00 64 1016.8
20260506122543 11 0 0.0 0.0 0.00 0.00 0.00 64 1016.8
20260506122042 11 0 0.0 0.0 0.00 0.00 0.00 64 1016.7
20260506121552 11 0 0.0 0.0 0.00 0.00 0.00 64 1016.7
20260506121039 11 0 0.0 0.0 0.00 0.00 0.00 64 1016.7
20260506120542 11 0 0.0 0.0 0.00 0.00 0.00 65 1016.7
20260506120050 11 0 0.0 0.0 0.00 0.00 0.00 65 1016.8
20260506115540 11 0 0.0 0.0 0.00 0.03 0.00 65 1016.8
20260506115039 11 0 0.0 0.0 0.00 0.03 0.00 65 1016.7
20260506114555 11 0 0.0 0.0 0.00 0.03 0.00 65 1016.6
20260506114039 11 0 0.0 0.0 0.00 0.03 0.00 65 1016.7
20260506113538 11 0 0.0 0.0 0.00 0.03 0.00 65 1016.7
20260506113056 11 0 0.0 0.0 0.00 0.03 0.00 65 1016.7
20260506112539 11 0 0.0 0.0 0.00 0.03 0.00 65 1016.6
20260506112038 10 0 0.0 0.0 0.00 0.03 0.00 65 1016.5
20260506111546 10 0 0.0 0.0 0.00 0.03 0.00 65 1016.5
20260506111039 10 0 0.0 0.0 0.00 0.03 0.00 65 1016.4
20260506110539 10 0 0.0 0.0 0.00 0.03 0.00 65 1016.3
20260506110056 10 0 0.0 0.0 0.00 0.03 0.00 65 1016.3
20260506105539 10 0 0.0 0.0 0.00 0.05 0.00 65 1016.3
20260506105039 10 0 0.0 0.0 0.00 0.05 0.00 65 1016.3
20260506104600 10 0 0.0 0.0 0.00 0.05 0.00 65 1016.3
20260506104039 10 0 0.0 0.0 0.00 0.05 0.00 65 1016.3
20260506103541 10 0 0.0 0.0 0.00 0.05 0.00 65 1016.2
20260506103048 10 0 0.0 0.0 0.00 0.05 0.00 65 1016.2
20260506102542 10 0 0.0 0.0 0.00 0.05 0.00 65 1016.3
20260506102042 10 0 0.0 0.0 0.00 0.05 0.00 65 1016.3
20260506101555 10 0 0.0 0.0 0.00 0.05 0.00 65 1016.3
20260506101039 10 0 0.0 0.0 0.00 0.05 0.00 65 1016.2
20260506100548 10 0 0.0 0.0 0.00 0.05 0.00 65 1016.3
20260506100055 10 0 0.0 0.0 0.00 0.05 0.00 64 1016.4
20260506095547 10 0 0.0 0.0 0.00 0.08 0.00 64 1016.3
20260506095044 10 0 0.0 0.0 0.00 0.08 0.00 64 1016.2
20260506094555 10 0 0.0 0.0 0.00 0.08 0.00 64 1016.1
20260506094043 10 0 0.0 0.0 0.00 0.08 0.00 64 1016.1
20260506093547 10 0 0.0 0.0 0.00 0.08 0.00 64 1016.2
20260506093100 10 0 0.0 0.0 0.00 0.08 0.00 64 1016.2
20260506092544 10 0 0.0 0.0 0.00 0.08 0.00 64 1016.2
20260506092044 10 0 0.0 0.0 0.00 0.08 0.00 64 1016.2
20260506091553 10 0 0.0 0.0 0.00 0.08 0.00 63 1016.1
20260506091047 10 0 0.0 0.0 0.00 0.08 0.00 63 1016.2
20260506090548 10 0 0.0 0.0 0.00 0.08 0.00 62 1016.2
20260506090048 10 0 0.0 0.0 0.00 0.08 0.00 62 1016.2
20260506085543 10 0 0.0 0.0 0.00 0.08 0.00 62 1016.2
20260506085043 10 0 0.0 0.0 0.00 0.08 0.00 62 1016.2
20260506084554 10 0 0.0 0.0 0.00 0.08 0.00 61 1016.1
20260506084043 10 0 0.0 0.0 0.00 0.08 0.00 61 1016.2
20260506083544 10 0 0.0 0.0 0.00 0.08 0.00 61 1016.2
20260506083048 10 0 0.0 0.0 0.00 0.08 0.00 61 1016.3
20260506082545 10 0 0.0 0.0 0.00 0.08 0.00 61 1016.3
20260506082047 10 0 0.0 0.0 0.00 0.08 0.00 61 1016.4
20260506081548 10 0 0.0 0.0 0.00 0.08 0.00 61 1016.4
20260506081044 10 0 0.0 0.0 0.00 0.08 0.00 61 1016.4
20260506080544 10 0 0.0 0.0 0.00 0.08 0.00 61 1016.4
20260506073052 11 0 0.0 0.0 0.00 0.08 0.00 61 1016.1
20260506072544 11 0 0.0 0.0 0.00 0.08 0.00 62 1016.1
20260506072045 11 0 0.0 0.0 0.00 0.08 0.00 61 1016.0
20260506071604 11 0 0.0 0.0 0.00 0.08 0.00 61 1016.0
20260506071045 11 0 0.0 0.0 0.00 0.08 0.00 62 1016.0
20260506070635 11 0 0.0 1.6 0.00 0.08 0.00 61 1016.0
20260506062043 12 0 0.0 0.0 0.00 0.08 0.08 60 1015.6
20260506061551 12 0 0.0 4.8 0.00 0.08 0.08 60 1015.5
20260506061043 12 0 0.0 4.8 0.00 0.08 0.08 60 1015.6
20260506060544 12 0 0.0 1.6 0.00 0.08 0.08 60 1015.5
20260506051048 13 0 0.0 3.2 0.00 0.08 0.08 59 1015.2
20260506050543 13 0 0.0 3.2 0.00 0.08 0.08 59 1015.1
20260506045044 13 0 0.0 4.8 0.00 0.08 0.08 59 1015.0
20260506044553 13 0 0.0 4.8 0.00 0.08 0.08 59 1015.0
20260506044044 13 0 0.0 1.6 0.00 0.08 0.08 59 1014.8
20260506043547 13 0 0.0 3.2 0.00 0.08 0.08 59 1014.7
20260506043051 13 0 0.0 3.2 0.00 0.08 0.08 59 1014.7
20260506042544 13 209 0.0 3.2 0.00 0.08 0.08 59 1014.6
20260506042045 13 0 0.0 1.6 0.00 0.08 0.08 58 1014.6
20260506041604 13 0 0.0 1.6 0.00 0.08 0.08 58 1014.5
20260506041043 13 0 0.0 3.2 0.00 0.08 0.08 58 1014.4
20260506040543 13 0 0.0 3.2 0.00 0.08 0.08 58 1014.4
20260506040050 13 0 0.0 1.6 0.00 0.08 0.08 58 1014.4
20260506035547 13 0 0.0 3.2 0.00 0.08 0.08 58 1014.4
20260506035047 13 0 0.0 3.2 0.00 0.08 0.08 58 1014.3
20260506034554 13 0 0.0 1.6 0.00 0.08 0.08 58 1014.2
20260506034044 13 0 0.0 1.6 0.00 0.08 0.08 57 1014.2
20260506033546 13 0 0.0 1.6 0.00 0.08 0.08 57 1014.1
20260506033055 13 0 0.0 1.6 0.00 0.08 0.08 57 1014.1
20260506032543 13 0 0.0 3.2 0.00 0.08 0.08 57 1013.9
20260506032043 13 0 0.0 3.2 0.00 0.08 0.08 57 1013.9
20260506031557 13 0 0.0 6.4 0.00 0.08 0.08 57 1013.8
20260506031043 13 0 0.0 6.4 0.00 0.08 0.08 57 1013.8
20260506030540 14 211 0.0 4.8 0.00 0.08 0.08 57 1013.6
20260506030052 14 0 0.0 3.2 0.00 0.08 0.08 57 1013.7
20260506025546 14 0 0.0 6.4 0.00 0.08 0.08 57 1013.6
20260506025043 14 0 0.0 8.0 0.00 0.08 0.08 56 1013.4
20260506024551 14 0 1.6 8.0 0.00 0.08 0.08 56 1013.5
20260506024043 14 217 1.6 8.0 0.00 0.08 0.08 57 1013.3
20260506023542 14 0 0.0 6.4 0.00 0.08 0.08 56 1013.3
20260506023052 14 217 0.0 8.0 0.00 0.08 0.08 56 1013.4
20260506022543 14 0 0.0 8.0 0.00 0.08 0.08 56 1013.3
20260506022043 14 0 0.0 11.3 0.00 0.08 0.08 56 1013.2
20260506021554 14 0 1.6 11.3 0.00 0.08 0.08 56 1013.3
20260506021043 14 0 0.0 11.3 0.00 0.08 0.08 55 1013.1
20260506020542 15 223 1.6 9.7 0.00 0.08 0.08 55 1013.1
20260506020053 15 250 1.6 12.9 0.00 0.08 0.08 55 1013.0
20260506015543 15 237 3.2 12.9 0.00 0.08 0.08 55 1013.0
20260506015044 15 221 3.2 12.9 0.00 0.08 0.08 54 1013.0
20260506014558 15 206 1.6 8.0 0.00 0.08 0.08 55 1012.9
20260506014044 15 0 1.6 16.1 0.00 0.08 0.08 54 1013.0
20260506013543 15 0 1.6 16.1 0.00 0.08 0.08 54 1012.9
20260506013048 15 202 1.6 14.5 0.00 0.08 0.08 54 1012.9
20260506012543 15 231 3.2 14.5 0.00 0.08 0.08 55 1012.9
20260506012043 15 0 4.8 14.5 0.00 0.08 0.08 54 1012.9
20260506011549 15 210 4.8 14.5 0.00 0.08 0.08 54 1012.9
20260506011044 15 215 3.2 14.5 0.00 0.08 0.08 54 1012.8
20260506010545 15 234 3.2 14.5 0.00 0.08 0.08 54 1012.9
20260506010052 15 216 3.2 12.9 0.00 0.08 0.08 54 1013.0
20260506005543 15 213 3.2 14.5 0.00 0.08 0.08 54 1013.0
20260506005039 15 0 1.6 14.5 0.00 0.08 0.08 54 1012.9
20260506004555 15 193 1.6 14.5 0.00 0.08 0.08 54 1013.0
20260506004039 15 212 3.2 11.3 0.00 0.08 0.08 54 1012.8
20260506003543 15 227 1.6 12.9 0.00 0.08 0.08 54 1012.8
20260506003057 15 207 3.2 12.9 0.00 0.08 0.08 54 1012.8
20260506002547 15 222 1.6 14.5 0.00 0.08 0.08 54 1012.8
20260506002043 15 216 4.8 14.5 0.00 0.08 0.08 53 1012.7
20260506001609 15 234 1.6 14.5 0.00 0.08 0.08 54 1012.7
20260506001043 15 259 6.4 14.5 0.00 0.08 0.08 53 1012.7
20260506000543 15 217 6.4 16.1 0.00 0.08 0.08 53 1012.5
20260506000054 15 0 3.2 16.1 0.00 0.08 0.08 53 1012.5
20260505235543 15 202 3.2 12.9 0.00 0.08 0.08 53 1012.6
20260505235046 15 209 4.8 16.1 0.00 0.08 0.08 53 1012.5
20260505234551 16 232 6.4 16.1 0.00 0.08 0.08 53 1012.5
20260505234043 16 225 3.2 12.9 0.00 0.08 0.08 53 1012.6
20260505233546 16 0 1.6 14.5 0.00 0.08 0.08 53 1012.6
20260505233058 16 226 4.8 14.5 0.00 0.08 0.08 53 1012.7
20260505232543 16 215 1.6 8.0 0.00 0.08 0.08 53 1012.7
20260505232040 16 213 0.0 8.0 0.00 0.08 0.08 53 1012.7
20260505231555 16 0 3.2 12.9 0.00 0.08 0.08 53 1012.8
20260505231046 16 0 3.2 12.9 0.00 0.08 0.08 53 1012.8
20260505230543 16 213 1.6 8.0 0.00 0.08 0.08 52 1012.8
20260505230056 16 263 1.6 8.0 0.00 0.08 0.08 53 1012.8
20260505225543 16 232 1.6 9.7 0.00 0.08 0.08 54 1012.8
20260505225043 16 227 3.2 12.9 0.00 0.08 0.08 53 1012.7
20260505224550 16 215 4.8 12.9 0.00 0.08 0.08 53 1012.7
20260505224043 16 220 4.8 12.9 0.00 0.08 0.08 52 1012.7
20260505223543 16 228 4.8 11.3 0.00 0.08 0.08 53 1012.8
20260505223056 16 232 3.2 12.9 0.00 0.08 0.08 53 1012.8